Location: Góry Miechowskie
(50.3599°N, 20.1803°E)
Time: 14:21:09
(UTC+00:00)

A-11 Canister half - Pass Details

Date: 13 September 2024
Orbit: 1515 x 1684 km, 47.2° (Epoch: 11 October)

Event Time Altitude Azimuth Distance (km) Brightness Sun altitude
Rises 19:13:18 0° 247° (WSW) 4,700 12.0 -21.1°
Reaches altitude 10° 19:16:23 10° 245° (WSW) 3,702 11.4 -21.5°
Maximum altitude 19:25:33 68° 165° (SSE) 1,619 8.9 -22.7°
Enters shadow 19:30:48 29° 92° (E) 2,506 9.7 -23.4°
